When you browse on this site, cookies collect data to enhance your experience and personalize the content and advertising you see.
Visit our Privacy Policy to learn more. By continuing to use the site, you agree to this use of cookies and data.
  • In Deutschland
  • Länderverzeichnis
  • Für 7 Tage
  • Wassertemperatur
  • Satellitenkarten
  • Wetterkarte
  • Widgets
  • user-avatar
    Anmelden

    Stündliche Wetter Haradok

    Heute, 23 Mai, Donnerstag

    Zeit Temperatur Niederschläge Wind Luftdruck Luftfeuchtigkeit
    00:00 +15°C° 0 mm 1 m/S 742 mmHg 86%
    01:00 +15°C° 0 mm 1 m/S 742 mmHg 87%
    02:00 +14°C° 0 mm 1 m/S 742 mmHg 88%
    03:00 +15°C° 0 mm 1 m/S 742 mmHg 89%
    04:00 +15°C° 0 mm 1 m/S 742 mmHg 90%
    05:00 +15°C° 0 mm 1 m/S 742 mmHg 91%
    06:00 +17°C° 0 mm 2 m/S 742 mmHg 85%
    07:00 +18°C° 0 mm 2 m/S 742 mmHg 80%
    08:00 +20°C° 0 mm 2 m/S 742 mmHg 74%
    09:00 +23°C° 0.2 mm 2 m/S 742 mmHg 67%
    10:00 +24°C° 0.2 mm 3 m/S 742 mmHg 60%
    11:00 +25°C° 0.2 mm 3 m/S 742 mmHg 53%
    12:00 +26°C° 0.2 mm 3 m/S 742 mmHg 53%
    13:00 +26°C° 0.2 mm 3 m/S 742 mmHg 52%
    14:00 +26°C° 0.2 mm 3 m/S 742 mmHg 51%
    15:00 +26°C° 0.4 mm 3 m/S 742 mmHg 57%
    16:00 +25°C° 0.4 mm 3 m/S 742 mmHg 62%
    17:00 +25°C° 0.4 mm 3 m/S 741 mmHg 68%
    18:00 +23°C° 0.4 mm 2 m/S 742 mmHg 73%
    19:00 +20°C° 0.4 mm 2 m/S 742 mmHg 79%
    20:00 +20°C° 0.4 mm 1 m/S 742 mmHg 84%
    21:00 +19°C° 0.1 mm 1 m/S 742 mmHg 86%
    22:00 +18°C° 0.1 mm 1 m/S 742 mmHg 88%
    23:00 +16°C° 0.1 mm 0 m/S 742 mmHg 90%

    Morgen, 24 Mai, Freitag

    Zeit Temperatur Niederschläge Wind Luftdruck Luftfeuchtigkeit
    00:00 +15°C° 0.9 mm 0 m/S 742 mmHg 91%
    01:00 +15°C° 0.9 mm 0 m/S 742 mmHg 93%
    02:00 +15°C° 0.9 mm 1 m/S 742 mmHg 94%
    03:00 +16°C° 0.1 mm 1 m/S 742 mmHg 94%
    04:00 +16°C° 0.1 mm 1 m/S 742 mmHg 95%
    05:00 +16°C° 0.1 mm 1 m/S 742 mmHg 95%
    06:00 +18°C° 0 mm 1 m/S 743 mmHg 91%
    07:00 +19°C° 0 mm 1 m/S 743 mmHg 87%
    08:00 +21°C° 0 mm 1 m/S 743 mmHg 83%
    09:00 +20°C° 1 mm 2 m/S 743 mmHg 80%
    10:00 +21°C° 1 mm 2 m/S 743 mmHg 78%
    11:00 +23°C° 1 mm 2 m/S 743 mmHg 75%
    12:00 +22°C° 0.6 mm 3 m/S 743 mmHg 76%
    13:00 +22°C° 0.6 mm 3 m/S 743 mmHg 77%
    14:00 +21°C° 0.6 mm 3 m/S 743 mmHg 78%
    15:00 +21°C° 0.7 mm 3 m/S 743 mmHg 80%
    16:00 +21°C° 0.7 mm 3 m/S 742 mmHg 82%
    17:00 +20°C° 0.7 mm 3 m/S 742 mmHg 84%
    18:00 +19°C° 0.6 mm 3 m/S 742 mmHg 88%
    19:00 +18°C° 0.6 mm 2 m/S 742 mmHg 91%
    20:00 +17°C° 0.6 mm 2 m/S 742 mmHg 94%
    21:00 +17°C° 0 mm 2 m/S 742 mmHg 94%
    22:00 +16°C° 0 mm 1 m/S 742 mmHg 95%
    23:00 +16°C° 0 mm 1 m/S 742 mmHg 96%

    übermorgen, 25 Mai, Samstag

    Zeit Temperatur Niederschläge Wind Luftdruck Luftfeuchtigkeit
    00:00 +15°C° 0.1 mm 1 m/S 742 mmHg 96%
    01:00 +15°C° 0.1 mm 1 m/S 742 mmHg 96%
    02:00 +15°C° 0.1 mm 1 m/S 741 mmHg 96%
    03:00 +15°C° 0.1 mm 1 m/S 741 mmHg 96%
    04:00 +15°C° 0.1 mm 1 m/S 741 mmHg 96%
    05:00 +15°C° 0.1 mm 1 m/S 741 mmHg 97%
    06:00 +15°C° 0.1 mm 2 m/S 741 mmHg 95%
    07:00 +16°C° 0.1 mm 2 m/S 741 mmHg 93%
    08:00 +17°C° 0.1 mm 3 m/S 741 mmHg 91%
    09:00 +18°C° 0 mm 3 m/S 741 mmHg 80%
    10:00 +19°C° 0 mm 3 m/S 741 mmHg 70%
    11:00 +21°C° 0 mm 4 m/S 741 mmHg 60%
    12:00 +21°C° 0 mm 3 m/S 740 mmHg 55%
    13:00 +22°C° 0 mm 3 m/S 740 mmHg 50%
    14:00 +24°C° 0 mm 3 m/S 740 mmHg 46%
    15:00 +22°C° 0 mm 4 m/S 740 mmHg 49%
    16:00 +22°C° 0 mm 4 m/S 739 mmHg 52%
    17:00 +21°C° 0 mm 4 m/S 739 mmHg 55%
    18:00 +20°C° 0 mm 4 m/S 739 mmHg 64%
    19:00 +18°C° 0 mm 3 m/S 739 mmHg 72%
    20:00 +16°C° 0 mm 3 m/S 739 mmHg 80%
    21:00 +14°C° 0 mm 3 m/S 740 mmHg 83%
    22:00 +13°C° 0 mm 3 m/S 740 mmHg 85%
    23:00 +11°C° 0 mm 3 m/S 740 mmHg 88%

    26 Mai, Sonntag

    Zeit Temperatur Niederschläge Wind Luftdruck Luftfeuchtigkeit
    00:00 +10°C° 0 mm 3 m/S 740 mmHg 90%
    01:00 +10°C° 0 mm 3 m/S 740 mmHg 92%
    02:00 +9°C° 0 mm 2 m/S 740 mmHg 94%
    03:00 +9°C° 0 mm 3 m/S 740 mmHg 93%
    04:00 +8°C° 0 mm 3 m/S 740 mmHg 93%
    05:00 +8°C° 0 mm 3 m/S 740 mmHg 93%
    06:00 +9°C° 0 mm 3 m/S 740 mmHg 85%
    07:00 +11°C° 0 mm 3 m/S 740 mmHg 77%
    08:00 +12°C° 0 mm 3 m/S 740 mmHg 70%
    09:00 +12°C° 0 mm 4 m/S 740 mmHg 70%
    10:00 +12°C° 0 mm 4 m/S 740 mmHg 71%
    11:00 +13°C° 0 mm 4 m/S 740 mmHg 72%
    12:00 +13°C° 0.1 mm 4 m/S 740 mmHg 70%
    13:00 +14°C° 0.1 mm 4 m/S 740 mmHg 67%
    14:00 +15°C° 0.1 mm 4 m/S 740 mmHg 65%
    15:00 +15°C° 0.1 mm 4 m/S 739 mmHg 67%
    16:00 +15°C° 0.1 mm 4 m/S 739 mmHg 68%
    17:00 +15°C° 0.1 mm 4 m/S 739 mmHg 70%
    18:00 +13°C° 0.9 mm 4 m/S 739 mmHg 78%
    19:00 +11°C° 0.9 mm 4 m/S 738 mmHg 86%
    20:00 +9°C° 0.9 mm 3 m/S 738 mmHg 95%
    21:00 +9°C° 0.2 mm 3 m/S 738 mmHg 95%
    22:00 +8°C° 0.2 mm 3 m/S 738 mmHg 96%
    23:00 +8°C° 0.2 mm 3 m/S 738 mmHg 96%

    27 Mai, Montag

    Zeit Temperatur Niederschläge Wind Luftdruck Luftfeuchtigkeit
    00:00 +7°C° 0 mm 3 m/S 738 mmHg 96%
    01:00 +7°C° 0 mm 3 m/S 739 mmHg 96%
    02:00 +5°C° 0 mm 3 m/S 739 mmHg 96%
    03:00 +5°C° 0 mm 3 m/S 739 mmHg 96%
    04:00 +5°C° 0 mm 4 m/S 739 mmHg 95%
    05:00 +5°C° 0 mm 4 m/S 740 mmHg 95%
    06:00 +6°C° 0 mm 4 m/S 740 mmHg 90%
    07:00 +7°C° 0 mm 4 m/S 741 mmHg 84%
    08:00 +9°C° 0 mm 5 m/S 741 mmHg 78%
    09:00 +9°C° 0 mm 5 m/S 742 mmHg 75%
    10:00 +10°C° 0 mm 5 m/S 743 mmHg 71%
    11:00 +11°C° 0 mm 6 m/S 743 mmHg 67%
    12:00 +12°C° 0 mm 5 m/S 743 mmHg 68%
    13:00 +13°C° 0 mm 5 m/S 744 mmHg 68%
    14:00 +13°C° 0 mm 5 m/S 744 mmHg 69%
    15:00 +14°C° 0 mm 4 m/S 744 mmHg 66%
    16:00 +15°C° 0 mm 4 m/S 744 mmHg 64%
    17:00 +17°C° 0 mm 4 m/S 745 mmHg 62%
    18:00 +16°C° 0 mm 3 m/S 745 mmHg 69%
    19:00 +13°C° 0 mm 3 m/S 745 mmHg 75%
    20:00 +13°C° 0 mm 2 m/S 745 mmHg 82%
    21:00 +12°C° 0 mm 2 m/S 745 mmHg 86%
    22:00 +12°C° 0 mm 2 m/S 745 mmHg 89%
    23:00 +10°C° 0 mm 2 m/S 746 mmHg 92%

    28 Mai, Dienstag

    Zeit Temperatur Niederschläge Wind Luftdruck Luftfeuchtigkeit
    00:00 +10°C° 0 mm 3 m/S 746 mmHg 93%
    01:00 +10°C° 0 mm 3 m/S 746 mmHg 93%
    02:00 +10°C° 0 mm 4 m/S 746 mmHg 93%
    03:00 +10°C° 0 mm 4 m/S 746 mmHg 92%
    04:00 +11°C° 0 mm 4 m/S 746 mmHg 91%
    05:00 +11°C° 0 mm 4 m/S 746 mmHg 89%
    06:00 +12°C° 0 mm 4 m/S 746 mmHg 85%
    07:00 +14°C° 0 mm 4 m/S 746 mmHg 80%
    08:00 +15°C° 0 mm 4 m/S 746 mmHg 75%
    09:00 +18°C° 0 mm 4 m/S 747 mmHg 70%
    10:00 +20°C° 0 mm 4 m/S 747 mmHg 65%
    11:00 +21°C° 0 mm 3 m/S 747 mmHg 60%
    12:00 +22°C° 0 mm 4 m/S 747 mmHg 59%
    13:00 +22°C° 0 mm 4 m/S 746 mmHg 57%
    14:00 +23°C° 0 mm 4 m/S 746 mmHg 55%
    15:00 +22°C° 0 mm 4 m/S 746 mmHg 58%
    16:00 +22°C° 0 mm 4 m/S 746 mmHg 60%
    17:00 +21°C° 0 mm 4 m/S 746 mmHg 63%
    18:00 +20°C° 0.8 mm 4 m/S 745 mmHg 74%
    19:00 +18°C° 0.8 mm 4 m/S 745 mmHg 85%
    20:00 +17°C° 0.8 mm 3 m/S 745 mmHg 95%
    21:00 +15°C° 1.9 mm 4 m/S 744 mmHg 95%
    22:00 +15°C° 1.9 mm 4 m/S 744 mmHg 95%
    23:00 +15°C° 1.9 mm 5 m/S 744 mmHg 95%
    Mehr zeigen